Location: Schommer Observatory
(40.5200°N, 74.4500°W)
Time: 08:31:12
(UTC-05:00)

Hubble Space Telescope - Visible Passes

Search period start: 21 January 2019 00:00
Search period end: 31 January 2019 00:00
Orbit: 537 x 540 km, 28.5° (Epoch: 20 January)

Date Brightness Start Highest point End Pass type
(mag) Time Alt. Az. Time Alt. Az. Time Alt. Az.
21 Jan 3.0 05:08:34 15° S 05:08:49 15° S 05:11:16 10° SE visible
21 Jan 3.3 06:47:32 10° SW 06:49:17 12° S 06:51:01 10° SSE visible
22 Jan 3.1 04:58:45 15° S 04:58:45 15° S 05:00:43 10° SE visible
22 Jan 3.3 06:37:30 10° SSW 06:38:41 11° SSW 06:39:52 10° S visible
23 Jan 3.3 04:48:54 14° SSE 04:48:54 14° SSE 04:50:05 10° SSE visible
24 Jan 3.6 04:39:04 11° SSE 04:39:04 11° SSE 04:39:25 10° SSE visible
